Time,TemperatureF,DewpointF,PressureIn,WindDirection,WindDirectionDegrees,WindSpeedMPH,WindSpeedGustMPH,Humidity,HourlyPrecipIn,Conditions,Clouds,dailyrainin,SolarRadiationWatts/m^2,SoftwareType,DateUTC
2013-11-20 00:42:00,31.0,22.0,-100.00,SSE,166,6.0,16.0,69,0.00,,,0.00,0.000000,,2013-11-20 06:42:00,
2013-11-20 00:52:00,31.0,22.0,-100.00,SSE,166,6.0,16.0,69,0.00,,,0.00,0.000000,,2013-11-20 06:52:00,
2013-11-20 01:01:00,31.0,22.0,-100.00,SSE,166,6.0,16.0,69,0.00,,,0.00,0.000000,,2013-11-20 07:01:00,
2013-11-20 01:02:00,31.0,21.0,-100.00,South,174,6.0,19.0,66,0.00,,,0.00,0.000000,,2013-11-20 07:02:00,
2013-11-20 01:42:00,31.0,21.0,-100.00,South,174,6.0,19.0,66,0.00,,,0.00,0.000000,,2013-11-20 07:42:00,
2013-11-20 01:52:00,31.0,21.0,-100.00,South,174,6.0,19.0,66,0.00,,,0.00,0.000000,,2013-11-20 07:52:00,
2013-11-20 02:02:00,32.0,21.0,-100.00,South,173,5.0,16.0,63,0.00,,,0.00,0.000000,,2013-11-20 08:02:00,
2013-11-20 02:42:00,32.0,21.0,-100.00,South,173,5.0,16.0,63,0.00,,,0.00,0.000000,,2013-11-20 08:42:00,
2013-11-20 02:52:00,32.0,21.0,-100.00,South,173,5.0,16.0,63,0.00,,,0.00,0.000000,,2013-11-20 08:52:00,
2013-11-20 03:02:00,32.0,21.0,-100.00,SSE,165,5.0,17.0,64,0.00,,,0.00,0.000000,,2013-11-20 09:02:00,
2013-11-20 03:44:00,32.0,21.0,-100.00,SSE,165,5.0,17.0,64,0.00,,,0.00,0.000000,,2013-11-20 09:44:00,
2013-11-20 03:54:00,32.0,21.0,-100.00,SSE,165,5.0,17.0,64,0.00,,,0.00,0.000000,,2013-11-20 09:54:00,
2013-11-20 04:02:00,32.0,23.0,-100.00,South,174,5.0,15.0,69,0.00,,,0.00,0.000000,,2013-11-20 10:02:00,
2013-11-20 04:43:00,32.0,23.0,-100.00,South,174,5.0,15.0,69,0.00,,,0.00,0.000000,,2013-11-20 10:43:00,
2013-11-20 04:53:00,32.0,23.0,-100.00,South,174,5.0,15.0,69,0.00,,,0.00,0.000000,,2013-11-20 10:53:00,
2013-11-20 05:02:00,33.0,23.0,-100.00,South,183,5.0,17.0,66,0.00,,,-99.99,0.000000,,2013-11-20 11:02:00,
2013-11-20 05:43:00,33.0,23.0,-100.00,South,183,5.0,17.0,66,0.00,,,-99.99,0.000000,,2013-11-20 11:43:00,
2013-11-20 05:52:00,33.0,23.0,-100.00,South,183,5.0,17.0,66,0.00,,,-99.99,0.000000,,2013-11-20 11:52:00,
2013-11-20 06:42:00,33.0,21.0,-100.00,South,185,5.0,15.0,62,0.00,,,0.00,0.000000,,2013-11-20 12:42:00,
2013-11-20 06:52:00,33.0,21.0,-100.00,South,185,5.0,15.0,62,0.00,,,0.00,0.000000,,2013-11-20 12:52:00,
2013-11-20 07:01:00,33.0,21.0,-100.00,South,185,5.0,15.0,62,0.00,,,0.00,0.000000,,2013-11-20 13:01:00,
2013-11-20 08:02:00,34.0,22.0,-100.00,South,172,7.0,14.0,61,-99.99,,,0.00,16.000000,,2013-11-20 14:02:00,
2013-11-20 08:42:00,34.0,22.0,-100.00,South,172,7.0,14.0,61,-99.99,,,0.00,16.000000,,2013-11-20 14:42:00,
2013-11-20 08:52:00,34.0,22.0,-100.00,South,172,7.0,14.0,61,-99.99,,,0.00,16.000000,,2013-11-20 14:52:00,
2013-11-20 09:02:00,34.0,22.0,-100.00,South,174,5.0,15.0,61,0.00,,,0.00,53.000000,,2013-11-20 15:02:00,
2013-11-20 09:43:00,34.0,22.0,-100.00,South,174,5.0,15.0,61,0.00,,,0.00,53.000000,,2013-11-20 15:43:00,
2013-11-20 09:54:00,34.0,22.0,-100.00,South,174,5.0,15.0,61,0.00,,,0.00,53.000000,,2013-11-20 15:54:00,
2013-11-20 10:02:00,35.0,23.0,-100.00,SSE,167,7.0,20.0,61,0.00,,,0.00,81.000000,,2013-11-20 16:02:00,
2013-11-20 10:23:00,35.0,23.0,-100.00,SSE,167,7.0,20.0,61,0.00,,,0.00,81.000000,,2013-11-20 16:23:00,
2013-11-20 10:34:00,35.0,23.0,-100.00,SSE,167,7.0,20.0,61,0.00,,,0.00,81.000000,,2013-11-20 16:34:00,
2013-11-20 10:43:00,35.0,23.0,-100.00,SSE,167,7.0,20.0,61,0.00,,,0.00,81.000000,,2013-11-20 16:43:00,
2013-11-20 10:52:00,35.0,23.0,-100.00,SSE,167,7.0,20.0,61,0.00,,,0.00,81.000000,,2013-11-20 16:52:00,
2013-11-20 11:02:00,35.0,22.0,-100.00,South,175,6.0,16.0,59,0.00,,,0.00,67.000000,,2013-11-20 17:02:00,
2013-11-20 11:22:00,35.0,22.0,-100.00,South,175,6.0,16.0,59,0.00,,,0.00,67.000000,,2013-11-20 17:22:00,
2013-11-20 11:33:00,35.0,22.0,-100.00,South,175,6.0,16.0,59,0.00,,,0.00,67.000000,,2013-11-20 17:33:00,
2013-11-20 11:42:00,35.0,22.0,-100.00,South,175,6.0,16.0,59,0.00,,,0.00,67.000000,,2013-11-20 17:42:00,
2013-11-20 11:52:00,35.0,22.0,-100.00,South,175,6.0,16.0,59,0.00,,,0.00,67.000000,,2013-11-20 17:52:00,
2013-11-20 12:02:00,36.0,22.0,-100.00,South,173,5.0,19.0,57,0.00,,,0.00,67.000000,,2013-11-20 18:02:00,
2013-11-20 12:43:00,36.0,22.0,-100.00,South,173,5.0,19.0,57,0.00,,,0.00,67.000000,,2013-11-20 18:43:00,
2013-11-20 12:52:00,36.0,22.0,-100.00,South,173,5.0,19.0,57,0.00,,,0.00,67.000000,,2013-11-20 18:52:00,
2013-11-20 13:22:00,36.0,22.0,-100.00,SSW,199,7.0,20.0,57,0.00,,,0.00,77.000000,,2013-11-20 19:22:00,
2013-11-20 13:32:00,36.0,22.0,-100.00,SSW,199,7.0,20.0,57,0.00,,,0.00,77.000000,,2013-11-20 19:32:00,
2013-11-20 13:42:00,36.0,22.0,-100.00,SSW,199,7.0,20.0,57,0.00,,,0.00,77.000000,,2013-11-20 19:42:00,
2013-11-20 13:52:00,36.0,22.0,-100.00,SSW,199,7.0,20.0,57,0.00,,,0.00,77.000000,,2013-11-20 19:52:00,
2013-11-20 14:01:00,36.0,22.0,-100.00,SSW,199,7.0,20.0,57,0.00,,,0.00,77.000000,,2013-11-20 20:01:00,
2013-11-20 14:02:00,33.0,27.0,-100.00,SSW,206,7.0,21.0,77,0.00,,,0.00,31.000000,,2013-11-20 20:02:00,
2013-11-20 14:22:00,33.0,27.0,-100.00,SSW,206,7.0,21.0,77,0.00,,,0.00,31.000000,,2013-11-20 20:22:00,
2013-11-20 14:32:00,33.0,27.0,-100.00,SSW,206,7.0,21.0,77,0.00,,,0.00,31.000000,,2013-11-20 20:32:00,
2013-11-20 14:42:00,33.0,27.0,-100.00,SSW,206,7.0,21.0,77,0.00,,,0.00,31.000000,,2013-11-20 20:42:00,
2013-11-20 14:52:00,33.0,27.0,-100.00,SSW,206,7.0,21.0,77,0.00,,,0.00,31.000000,,2013-11-20 20:52:00,
2013-11-20 15:02:00,31.0,29.0,-100.00,SSE,156,3.0,19.0,93,0.00,,,0.00,41.000000,,2013-11-20 21:02:00,
2013-11-20 15:43:00,31.0,29.0,-100.00,SSE,156,3.0,19.0,93,0.00,,,0.00,41.000000,,2013-11-20 21:43:00,
2013-11-20 15:53:00,31.0,29.0,-100.00,SSE,156,3.0,19.0,93,0.00,,,0.00,41.000000,,2013-11-20 21:53:00,
2013-11-20 16:02:00,31.0,29.0,-100.00,SE,145,2.0,10.0,92,0.00,,,-99.99,10.000000,,2013-11-20 22:02:00,
2013-11-20 16:42:00,31.0,29.0,-100.00,SE,145,2.0,10.0,92,0.00,,,-99.99,10.000000,,2013-11-20 22:42:00,
2013-11-20 16:53:00,31.0,29.0,-100.00,SE,145,2.0,10.0,92,0.00,,,-99.99,10.000000,,2013-11-20 22:53:00,
2013-11-20 17:02:00,30.0,28.0,-100.00,SSE,150,3.0,11.0,92,0.00,,,0.00,1.000000,,2013-11-20 23:02:00,
2013-11-20 17:43:00,30.0,28.0,-100.00,SSE,150,3.0,11.0,92,0.00,,,0.00,1.000000,,2013-11-20 23:43:00,
2013-11-20 17:52:00,30.0,28.0,-100.00,SSE,150,3.0,11.0,92,0.00,,,0.00,1.000000,,2013-11-20 23:52:00,
2013-11-20 18:02:00,30.0,29.0,-100.00,SSE,151,4.0,9.0,96,0.00,,,0.00,0.000000,,2013-11-21 00:02:00,
2013-11-20 18:22:00,30.0,29.0,-100.00,SSE,151,4.0,9.0,96,0.00,,,0.00,0.000000,,2013-11-21 00:22:00,
2013-11-20 18:32:00,30.0,29.0,-100.00,SSE,151,4.0,9.0,96,0.00,,,0.00,0.000000,,2013-11-21 00:32:00,
2013-11-20 18:42:00,30.0,29.0,-100.00,SSE,151,4.0,9.0,96,0.00,,,0.00,0.000000,,2013-11-21 00:42:00,
2013-11-20 18:52:00,30.0,29.0,-100.00,SSE,151,4.0,9.0,96,0.00,,,0.00,0.000000,,2013-11-21 00:52:00,
2013-11-20 19:42:00,30.0,29.0,-100.00,SSE,149,5.0,11.0,95,0.00,,,0.00,0.000000,,2013-11-21 01:42:00,
2013-11-20 19:52:00,30.0,29.0,-100.00,SSE,149,5.0,11.0,95,0.00,,,0.00,0.000000,,2013-11-21 01:52:00,
2013-11-20 20:01:00,30.0,29.0,-100.00,SSE,149,5.0,11.0,95,0.00,,,0.00,0.000000,,2013-11-21 02:01:00,
2013-11-20 20:02:00,30.0,29.0,-100.00,SSE,151,4.0,8.0,96,0.00,,,0.00,0.000000,,2013-11-21 02:02:00,
2013-11-20 20:52:00,30.0,29.0,-100.00,SSE,151,4.0,8.0,96,0.00,,,0.00,0.000000,,2013-11-21 02:52:00,
2013-11-20 21:02:00,31.0,30.0,-100.00,SSE,147,3.0,7.0,97,0.00,,,0.00,0.000000,,2013-11-21 03:02:00,
2013-11-20 21:22:00,31.0,30.0,-100.00,SSE,147,3.0,7.0,97,0.00,,,0.00,0.000000,,2013-11-21 03:22:00,
2013-11-20 21:34:00,31.0,30.0,-100.00,SSE,147,3.0,7.0,97,0.00,,,0.00,0.000000,,2013-11-21 03:34:00,
2013-11-20 21:43:00,31.0,30.0,-100.00,SSE,147,3.0,7.0,97,0.00,,,0.00,0.000000,,2013-11-21 03:43:00,
2013-11-20 21:54:00,31.0,30.0,-100.00,SSE,147,3.0,7.0,97,0.00,,,0.00,0.000000,,2013-11-21 03:54:00,
2013-11-20 22:02:00,31.0,30.0,-100.00,SSE,155,2.0,6.0,97,0.00,,,0.00,0.000000,,2013-11-21 04:02:00,
2013-11-20 22:43:00,31.0,30.0,-100.00,SSE,155,2.0,6.0,97,0.00,,,0.00,0.000000,,2013-11-21 04:43:00,
2013-11-20 22:53:00,31.0,30.0,-100.00,SSE,155,2.0,6.0,97,0.00,,,0.00,0.000000,,2013-11-21 04:53:00,
2013-11-20 23:02:00,31.0,30.0,-100.00,SE,145,2.0,7.0,97,0.00,,,0.00,0.000000,,2013-11-21 05:02:00,
2013-11-20 23:43:00,31.0,30.0,-100.00,SE,145,2.0,7.0,97,0.00,,,0.00,0.000000,,2013-11-21 05:43:00,
2013-11-20 23:53:00,31.0,30.0,-100.00,SE,145,2.0,7.0,97,0.00,,,0.00,0.000000,,2013-11-21 05:53:00,